STARLINK-32864, 62862

Orbit data source: Space-Track

STARLINK-32864, 62862 is a payload satellite owned by SpaceX/Seattle (US) in LEO that was launched on Sat, 01 Feb 2025 UTC via an FALCON 9 launch vehicle from the Air Force Western Test Range (AFWTR). Payload-class satellites include a variety of spacecraft equipped with specific instruments for various scientific and technological missions. These include communications satellites like Starlink; space stations such as the ISS; scientific satellites like the Hubble; Earth observation satellites from companies like Planet Labs, Umbra, and HawkEye 360; GPS; miniature CubeSats for education and research; and military/defense satellites.

Loading next visibility...
Identifier
62862, 2025-022J
Orbit
LEO
Country
Flag of USUS
Related business
Manufacturer
SpaceX/Seattle
Mission
Operational Commercial Communications
Bus & Motor
STARLINK V2M, Unknown motor
Mass
730 kg wet, ~700 kg dry
Launch date (UTC)
2025-02-01 (9 months ago)
Launch vehicle
FALCON 9
Launch site
Air Force Western Test Range (AFWTR)
Object type
Payload
Rocket body
Debris
Shape & HBR
Box + 2 Pan, 17.7 m
Radar Cross Section
33.884 m², Large (>1 m²)

Expand to show TLE details & history
Last TLE update: 1 day ago

TLE from 1 day ago
0 STARLINK-32864
1 62862U 25022J   25304.44825878  .00062929  00000-0  21212-2 0  9993
2 62862  53.1618   9.8450 0001221  73.5666 286.5469 15.30164125 42111
Epoch: 2025-10-31T10:45Z
TLE epoch observation values (Epoch: 2025-10-31T10:45:29.558Z)
Latitude
-0.00002°
Longitude
168.47928°
Altitude
475.984 km
Speed
7.629 km/s
True Right ascension
00h 39m 22s
True Declination
0° 00' 00"
Sunlit
Object was in full shadow at epoch
Visualization orbit readout
Latitude
Unknown
Longitude
Unknown
Altitude
Unknown
Speed
Unknown
Apparent Right ascension
Unknown
Apparent Declination
Unknown
Sunlit
N/A
Visualization observer readout
Local Sidereal Time
13:29:47
Azimuth
Unknown
Elevation
Unknown
Doppler factor
Unknown
Orbital elements
Apogee altitude
476.415 km
Perigee altitude
474.741 km
Semi-major axis
6,853.715 km
Eccentricity
0.00012
Inclination
53.1618°
RAAN
9.845°
Arg. of periapsis
73.5666°
True anomaly
286.53349°
Mean anomaly
286.5469°
Eccentric anomaly
286.54019°
Mean motion
3.8252 °/min
Orbital period
94.11 mins
BSTAR
0.0021212
Loading maneuver chart data...
Computing Atmospheric mass density...
Loading historical data...
Loading historical data...
Loading historical data...
Loading historical data...
Loading historical data...
Loading historical data...
Loading historical data...

Documentation

Showing up to 5 results
|